FW7632 Weather Reports


time (UTC)temp
C
wind
direction
speed
KPH
gust
KPH
rain 1hr
cm
rain 24hr
cm
rain mn
cm
humidity
%
barometer
mb
20260509211502 13 226 4.8 11.3 0.00 0.94 0.94 1 1006.5
20260509210104 13 221 4.8 14.5 0.00 0.94 0.94 1 1006.8
20260509204553 13 194 4.8 12.9 0.00 0.94 0.94 1 1006.9
20260509203049 13 215 4.8 16.1 0.03 0.94 0.94 1 1006.9
20260509201545 13 234 1.6 11.3 0.03 0.94 0.94 1 1007.0
20260509200047 12 238 4.8 12.9 0.05 0.94 0.94 1 1007.2
20260509194550 12 215 4.8 12.9 0.08 0.94 0.94 1 1007.4
20260509193034 12 221 1.6 14.5 0.10 0.91 0.91 1 1007.5
20260509191526 12 227 3.2 6.4 0.13 0.91 0.91 1 1007.6
20260509190025 12 211 3.2 8.0 0.13 0.89 0.89 1 1007.8
20260509184517 12 226 1.6 9.7 0.10 0.86 0.86 1 1007.8
20260509183016 12 261 1.6 9.7 0.05 0.81 0.81 1 1007.8
20260509181509 12 230 4.8 14.5 0.03 0.79 0.79 1 1007.7
20260509180005 12 226 4.8 11.3 0.00 0.76 0.76 1 1007.7
20260509174601 12 159 3.2 12.9 0.00 0.76 0.76 1 1007.6
20260509173106 12 216 6.4 12.9 0.00 0.76 0.76 1 1007.6
20260509171551 11 207 4.8 9.7 0.00 0.76 0.76 1 1007.6
20260509170047 11 219 3.2 14.5 0.00 0.76 0.76 1 1007.6
20260509164543 11 227 3.2 9.7 0.00 0.76 0.76 1 1007.7
20260509163038 11 199 1.6 11.3 0.00 0.76 0.76 1 1007.8
20260509161541 11 234 1.6 6.4 0.03 0.76 0.76 1 1008.0
20260509160034 11 236 0.0 6.4 0.03 0.76 0.76 1 1008.2
20260509154525 11 178 1.6 8.0 0.03 0.76 0.76 1 1008.2
20260509153033 11 178 3.2 11.3 0.05 0.76 0.76 1 1008.3
20260509151516 11 185 4.8 14.5 0.05 0.71 0.71 1 1008.4
20260509150017 11 227 4.8 9.7 0.05 0.71 0.71 1 1008.7
20260509144509 11 57 0.0 3.2 0.08 0.71 0.71 1 1008.9
20260509143003 11 57 0.0 3.2 0.08 0.71 0.71 1 1009.0
20260509141605 10 57 0.0 3.2 0.05 0.69 0.69 1 1009.0
20260509140106 10 57 0.0 6.4 0.08 0.69 0.69 1 1008.9
20260509134552 10 57 1.6 6.4 0.08 0.66 0.66 1 1008.9
20260509133046 10 57 0.0 4.8 0.10 0.64 0.64 1 1009.0
20260509131541 10 344 3.2 4.8 0.13 0.64 0.64 1 1009.2
20260509130037 10 344 3.2 4.8 0.18 0.61 0.61 1 1009.3
20260509124533 10 344 0.0 4.8 0.18 0.58 0.58 1 1009.4
20260509123028 10 344 0.0 4.8 0.18 0.53 0.53 1 1009.4
20260509121523 10 344 1.6 8.0 0.18 0.51 0.51 1 1009.4
20260509120018 9 70 1.6 4.8 0.13 0.43 0.43 1 1009.6
20260509114516 9 70 0.0 3.2 0.13 0.41 0.41 1 1009.6
20260509113011 9 70 1.6 6.4 0.13 0.36 0.36 1 1009.6
20260509111506 9 74 0.0 4.8 0.20 0.33 0.33 1 1009.6
20260509110002 9 74 1.6 6.4 0.18 0.30 0.30 1 1009.5
20260509104603 8 74 0.0 4.8 0.18 0.28 0.28 1 1009.4
20260509103104 8 74 1.6 6.4 0.13 0.23 0.23 1 1009.6
20260509101549 8 76 0.0 3.2 0.03 0.13 0.13 1 1009.5
20260509100044 8 78 3.2 6.4 0.03 0.13 0.13 1 1009.3
20260509094550 8 78 1.6 4.8 0.00 0.10 0.10 1 1009.4
20260509093038 8 78 0.0 3.2 0.00 0.10 0.10 1 1009.4
20260509091540 8 78 3.2 8.0 0.00 0.10 0.10 1 1009.3
20260509090036 8 88 3.2 6.4 0.00 0.10 0.10 1 1009.4
20260509084525 8 93 0.0 3.2 0.03 0.10 0.10 1 1009.4
20260509083017 8 93 0.0 3.2 0.03 0.10 0.10 1 1009.7
20260509081512 8 93 1.6 6.4 0.03 0.10 0.10 1 1009.8
20260509080008 7 94 0.0 3.2 0.03 0.10 0.10 1 1010.1
20260509074504 7 94 0.0 3.2 0.00 0.08 0.08 1 1010.2
20260509073109 7 94 0.0 1.6 0.03 0.08 0.08 1 1010.1
20260509071559 7 94 1.6 4.8 0.05 0.08 0.08 1 1009.9
20260509070056 7 94 0.0 1.6 0.08 0.08 0.08 1 1010.0
20260509064547 7 94 0.0 1.6 0.08 0.08 0.08 1 1010.0
20260509063055 7 94 0.0 3.2 0.05 0.05 0.05 1 1010.2
20260509061539 7 94 0.0 0.0 0.03 0.03 0.03 1 1010.5
20260509060039 7 94 0.0 1.6 0.00 0.00 0.00 1 1010.6
20260509054534 7 94 0.0 1.6 0.00 0.00 0.00 1 1010.7
20260509053037 7 94 0.0 1.6 0.00 0.00 0.00 1 1010.7
20260509051521 7 94 0.0 1.6 0.00 0.00 0.00 1 1010.7
20260509050016 7 94 0.0 3.2 0.00 0.00 0.00 1 1010.6
20260509044512 7 94 1.6 9.7 0.00 0.00 0.00 1 1010.7
20260509043012 7 94 3.2 12.9 0.00 0.00 0.00 1 1010.8
20260509041507 7 96 4.8 11.3 0.00 0.00 0.00 1 1010.9
20260509040109 7 126 1.6 3.2 0.00 0.00 0.00 1 1010.9
20260509034555 7 126 0.0 3.2 0.00 0.00 0.00 1 1011.0
20260509033110 6 126 0.0 3.2 0.00 0.00 0.00 1 1010.9
20260509031548 6 126 0.0 4.8 0.00 0.00 0.00 1 1010.8
20260509030042 7 126 1.6 3.2 0.00 0.00 0.00 1 1010.9
20260509024540 7 126 1.6 3.2 0.00 0.00 0.00 1 1011.0
20260509023033 8 126 1.6 3.2 0.00 0.00 0.00 1 1010.9
20260509021529 8 126 0.0 3.2 0.00 0.00 0.00 20 1010.8
20260509020024 8 126 0.0 1.6 0.00 0.00 0.00 29 1010.9
20260509014526 8 126 1.6 4.8 0.00 0.00 0.00 39 1010.8
20260509013015 9 126 0.0 4.8 0.00 0.00 0.00 46 1010.6
20260509011512 10 129 1.6 4.8 0.00 0.00 0.00 48 1010.5
20260509010006 10 125 1.6 3.2 0.00 0.00 0.00 50 1010.4
20260509004502 10 129 1.6 3.2 0.00 0.00 0.00 50 1010.1
20260509003102 10 128 0.0 4.8 0.00 0.00 0.00 51 1010.0
20260509001554 11 127 1.6 3.2 0.00 0.00 0.00 51 1009.9
20260509000049 12 128 0.0 3.2 0.00 0.00 0.00 50 1009.7
20260508234545 12 129 0.0 4.8 0.00 0.00 0.00 48 1009.6
20260508233042 12 133 1.6 4.8 0.00 0.00 0.00 47 1009.4
20260508231536 12 109 0.0 4.8 0.00 0.00 0.00 45 1009.3
20260508230031 13 51 0.0 6.4 0.00 0.00 0.00 43 1009.3
20260508224527 13 70 6.4 12.9 0.00 0.00 0.00 43 1009.3
20260508223023 13 86 4.8 11.3 0.00 0.00 0.00 43 1009.3
20260508221518 13 17 3.2 12.9 0.00 0.00 0.00 42 1009.2
20260508220013 14 360 1.6 14.5 0.00 0.00 0.00 40 1009.3
20260508214522 14 16 4.8 14.5 0.00 0.00 0.00 40 1009.3
20260508213005 14 360 1.6 14.5 0.00 0.00 0.00 41 1009.4